{"data":{"norad_id":40338,"epoch":"2026-05-25T03:58:37.331040Z","epoch_age_seconds":60134,"freshness":"FRESH","line1":"1 40338U 14080A   26145.16570985 -.00000245  00000+0 -17375-3 0  9998","line2":"2 40338  63.3897  10.0981 0364618   9.0582 351.6789 13.45411300562562","mean_motion":13.454113,"eccentricity":0.0364618,"inclination_deg":63.3897,"raan_deg":10.0981,"arg_perigee_deg":9.0582,"mean_anomaly_deg":351.6789,"bstar":-0.00017375,"rev_number":56256,"period_min":107.03046718873,"perigee_km":816.91711246707,"apogee_km":1361.4614264091,"semimajor_km":7467.3262694381,"source":"CELESTRAK","updated_at":"2026-05-25T13:37:55.516262Z"}}